F4FEB-13 Weather Reports


time (UTC)temp
C
wind
direction
speed
KPH
gust
KPH
rain 1hr
cm
rain 24hr
cm
rain mn
cm
humidity
%
barometer
mb
20260503072425 16 270 4.8 14.5 0.00 0.00 0.00 53 1015.3
20260503071925 16 281 1.6 14.5 0.00 0.00 0.00 53 1015.4
20260503071429 16 272 6.4 14.5 0.00 0.00 0.00 53 1015.3
20260503071425 16 272 6.4 14.5 0.00 0.00 0.00 53 1015.3
20260503070925 17 217 12.9 14.5 0.00 0.00 0.00 50 1015.2
20260503070425 17 277 4.8 9.7 0.00 0.00 0.00 45 1014.9
20260503054925 14 129 17.7 24.1 0.00 0.00 0.00 55 1015.6
20260503054430 14 213 9.7 12.9 0.00 0.00 0.00 55 1015.7
20260503054425 14 213 9.7 12.9 0.00 0.00 0.00 55 1015.7
20260503053925 14 210 4.8 19.3 0.00 0.00 0.00 54 1015.7
20260503053425 14 248 6.4 16.1 0.00 0.00 0.00 55 1015.8
20260503052929 14 279 9.7 12.9 0.00 0.00 0.00 53 1015.7
20260503052925 14 279 9.7 12.9 0.00 0.00 0.00 53 1015.7
20260503052425 14 187 8.0 16.1 0.00 0.00 0.00 53 1015.6
20260503051925 14 244 9.7 24.1 0.00 0.00 0.00 54 1015.6
20260503051430 14 177 9.7 27.4 0.00 0.00 0.00 53 1015.7
20260503051425 14 177 9.7 27.4 0.00 0.00 0.00 53 1015.7
20260503050925 13 185 19.3 24.1 0.00 0.00 0.00 52 1015.7
20260503050425 13 222 17.7 20.9 0.00 0.00 0.00 53 1015.6
20260503045928 13 247 11.3 12.9 0.00 0.00 0.00 55 1015.6
20260503045925 13 247 11.3 12.9 0.00 0.00 0.00 55 1015.6
20260503045425 13 236 4.8 12.9 0.00 0.00 0.00 56 1015.7
20260503044925 13 274 4.8 9.7 0.00 0.00 0.00 55 1015.8
20260503044429 13 289 8.0 12.9 0.00 0.00 0.00 56 1015.8
20260503044425 13 289 8.0 12.9 0.00 0.00 0.00 56 1015.8
20260503043925 13 250 4.8 11.3 0.00 0.00 0.00 58 1015.9
20260503043425 12 225 0.0 8.0 0.00 0.00 0.00 62 1015.7
20260503042928 12 198 0.0 8.0 0.00 0.00 0.00 62 1015.6
20260503042925 12 198 0.0 8.0 0.00 0.00 0.00 62 1015.6
20260503042425 12 178 8.0 9.7 0.00 0.00 0.00 64 1015.6
20260503041925 12 302 1.6 4.8 0.00 0.00 0.00 68 1015.6
20260503041428 12 168 1.6 3.2 0.00 0.00 0.00 66 1015.7
20260503041425 12 168 1.6 3.2 0.00 0.00 0.00 66 1015.7
20260503040925 12 337 0.0 0.0 0.00 0.00 0.00 66 1015.6
20260503040425 12 337 0.0 6.4 0.00 0.00 0.00 66 1015.7
20260503035928 12 316 3.2 6.4 0.00 0.00 0.00 67 1015.7
20260503035926 12 316 3.2 6.4 0.00 0.00 0.00 67 1015.7
20260503035426 12 300 0.0 0.0 0.00 0.00 0.00 69 1015.8
20260503034926 12 300 0.0 4.8 0.00 0.00 0.00 70 1015.7
20260503034426 11 338 4.8 4.8 0.00 0.00 0.00 69 1015.7
20260503033926 11 7 0.0 0.0 0.00 0.00 0.00 71 1015.8
20260503033426 11 7 0.0 0.0 0.00 0.00 0.00 71 1015.8
20260503032926 11 7 0.0 0.0 0.00 0.00 0.00 71 1015.8
20260503032426 11 7 0.0 3.2 0.00 0.00 0.00 71 1015.7
20260503031926 11 348 1.6 3.2 0.00 0.00 0.00 72 1015.8
20260503031426 11 350 1.6 4.8 0.00 0.00 0.00 72 1015.9
20260503030926 11 305 1.6 6.4 0.00 0.00 0.00 73 1015.9
20260503030426 11 286 0.0 3.2 0.00 0.00 0.00 72 1016.0
20260503025926 11 309 3.2 3.2 0.00 0.00 0.00 72 1016.0
20260503025426 11 261 0.0 0.0 0.00 0.00 0.00 69 1016.0
20260503024926 12 261 0.0 0.0 0.00 0.00 0.00 67 1015.8
20260503024426 12 261 0.0 8.0 0.00 0.00 0.00 65 1015.9
20260503023926 12 316 8.0 8.0 0.00 0.00 0.00 64 1015.8
20260503023426 12 329 8.0 11.3 0.00 0.00 0.00 63 1015.8
20260503022926 12 329 8.0 8.0 0.00 0.00 0.00 67 1015.8
20260503022426 12 329 4.8 6.4 0.00 0.00 0.00 67 1015.8
20260503021926 12 331 4.8 4.8 0.00 0.00 0.00 67 1015.8
20260503021426 12 345 3.2 3.2 0.00 0.00 0.00 67 1015.8
20260503020926 11 1 0.0 3.2 0.00 0.00 0.00 68 1015.8
20260503020426 11 333 3.2 3.2 0.00 0.00 0.00 69 1015.9
20260503015926 11 358 1.6 3.2 0.00 0.00 0.00 70 1015.9
20260503015426 11 343 1.6 3.2 0.00 0.00 0.00 70 1016.0
20260503014926 11 326 3.2 3.2 0.00 0.00 0.00 69 1016.1
20260503014426 12 292 0.0 0.0 0.00 0.00 0.00 66 1016.0
20260503013926 12 292 0.0 0.0 0.00 0.00 0.00 64 1016.0
20260503013426 13 292 0.0 0.0 0.00 0.00 0.00 63 1016.1
20260503012926 13 292 0.0 0.0 0.00 0.00 0.00 63 1016.1
20260503012426 13 292 0.0 0.0 0.00 0.00 0.00 64 1016.2
20260503011926 13 302 0.0 0.0 0.00 0.00 0.00 64 1016.1
20260503011426 13 302 0.0 0.0 0.00 0.00 0.00 63 1016.2
20260503010926 13 302 0.0 0.0 0.00 0.00 0.00 61 1016.3
20260503010426 13 302 0.0 4.8 0.00 0.00 0.00 61 1016.3
20260503005926 13 323 4.8 8.0 0.00 0.00 0.00 61 1016.4
20260503005426 13 315 4.8 4.8 0.00 0.00 0.00 61 1016.3
20260503004926 13 272 3.2 4.8 0.00 0.00 0.00 61 1016.2
20260503004426 13 302 1.6 4.8 0.00 0.00 0.00 61 1016.3
20260503003926 13 285 0.0 3.2 0.00 0.00 0.00 61 1016.3
20260503003426 14 210 0.0 4.8 0.00 0.00 0.00 59 1016.5
20260503002926 14 274 3.2 6.4 0.00 0.00 0.00 58 1016.5
20260503002426 15 288 3.2 9.7 0.00 0.00 0.00 57 1016.6
20260503001926 15 199 3.2 14.5 0.00 0.00 0.00 56 1016.6
20260503001426 15 277 6.4 17.7 0.00 0.00 0.00 56 1016.4
20260503000926 15 303 11.3 16.1 0.00 0.00 0.00 56 1016.3
20260503000426 16 330 4.8 6.4 0.00 0.00 0.00 53 1016.4
20260502235926 16 132 4.8 11.3 0.00 0.00 0.00 50 1016.7
20260502235426 16 250 6.4 12.9 0.00 0.00 0.00 50 1017.1
20260502234926 16 274 8.0 14.5 0.00 0.00 0.00 50 1017.1
20260502234426 16 239 0.0 16.1 0.00 0.00 0.00 49 1017.3
20260502233926 16 309 3.2 12.9 0.00 0.00 0.00 49 1017.3
20260502233426 16 258 4.8 16.1 0.00 0.00 0.00 50 1017.3
20260502232926 16 202 12.9 17.7 0.00 0.00 0.00 51 1017.3
20260502232426 16 181 8.0 12.9 0.00 0.00 0.00 51 1017.1
20260502231926 16 178 9.7 16.1 0.00 0.00 0.00 51 1017.2
20260502231426 16 212 9.7 17.7 0.00 0.00 0.00 50 1017.1
20260502230926 16 229 6.4 16.1 0.00 0.00 0.00 50 1016.9
20260502230426 16 225 9.7 16.1 0.00 0.00 0.00 50 1016.9
20260502225926 16 209 11.3 17.7 0.00 0.00 0.00 49 1016.9
20260502225426 16 170 8.0 16.1 0.00 0.00 0.00 50 1017.1
20260502224926 16 226 8.0 17.7 0.00 0.00 0.00 51 1017.1
20260502224426 16 171 6.4 17.7 0.00 0.00 0.00 51 1017.2
20260502223926 16 234 11.3 14.5 0.00 0.00 0.00 51 1017.1
20260502223426 16 274 6.4 22.5 0.00 0.00 0.00 51 1017.2
20260502222929 16 210 16.1 20.9 0.00 0.00 0.00 51 1017.2
20260502222926 16 210 16.1 20.9 0.00 0.00 0.00 51 1017.2
20260502222426 15 188 16.1 20.9 0.00 0.00 0.00 52 1017.1
20260502221926 15 157 8.0 19.3 0.00 0.00 0.00 53 1017.2
20260502221430 15 262 6.4 9.7 0.00 0.00 0.00 53 1017.3
20260502221426 15 262 6.4 9.7 0.00 0.00 0.00 53 1017.3
20260502220926 15 237 4.8 12.9 0.00 0.00 0.00 53 1017.3
20260502220426 15 187 4.8 11.3 0.00 0.00 0.00 53 1017.3
20260502215929 16 268 4.8 11.3 0.00 0.00 0.00 52 1017.4
20260502215926 16 268 4.8 11.3 0.00 0.00 0.00 52 1017.4
20260502215426 16 244 8.0 11.3 0.00 0.00 0.00 52 1017.4
20260502214926 16 270 6.4 9.7 0.00 0.00 0.00 51 1017.4
20260502214429 16 271 3.2 16.1 0.00 0.00 0.00 51 1017.5
20260502214426 16 271 3.2 16.1 0.00 0.00 0.00 51 1017.5
20260502213926 16 248 11.3 16.1 0.00 0.00 0.00 51 1017.4
20260502213426 15 202 4.8 16.1 0.00 0.00 0.00 53 1017.4
20260502212930 15 226 8.0 12.9 0.00 0.00 0.00 54 1017.4
20260502212926 15 226 8.0 12.9 0.00 0.00 0.00 54 1017.4
20260502212426 15 225 8.0 9.7 0.00 0.00 0.00 54 1017.4
20260502211926 15 240 8.0 11.3 0.00 0.00 0.00 54 1017.4
20260502211430 15 222 8.0 8.0 0.00 0.00 0.00 54 1017.4
20260502211426 15 222 8.0 8.0 0.00 0.00 0.00 54 1017.4
20260502210926 15 199 1.6 6.4 0.00 0.00 0.00 54 1017.4
20260502210426 15 264 3.2 3.2 0.00 0.00 0.00 54 1017.5
20260502205930 15 220 0.0 4.8 0.00 0.00 0.00 53 1017.5
20260502205926 15 220 0.0 4.8 0.00 0.00 0.00 53 1017.5
20260502205426 15 171 0.0 12.9 0.00 0.00 0.00 52 1017.5
20260502204926 15 250 6.4 6.4 0.00 0.00 0.00 53 1017.5
20260502204429 15 253 4.8 6.4 0.00 0.00 0.00 54 1017.5
20260502204426 15 253 4.8 6.4 0.00 0.00 0.00 54 1017.5
20260502203926 15 288 3.2 4.8 0.00 0.00 0.00 55 1017.5
20260502203426 15 267 3.2 6.4 0.00 0.00 0.00 55 1017.5
20260502202926 15 298 0.0 0.0 0.00 0.00 0.00 55 1017.6
20260502202426 15 298 0.0 0.0 0.00 0.00 0.00 55 1017.6
20260502201927 15 298 0.0 0.0 0.00 0.00 0.00 55 1017.6
20260502201431 14 298 0.0 0.0 0.00 0.00 0.00 55 1017.7
20260502201427 14 298 0.0 0.0 0.00 0.00 0.00 55 1017.7
20260502200927 14 298 0.0 0.0 0.00 0.00 0.00 56 1017.7
20260502200427 14 298 0.0 0.0 0.00 0.00 0.00 58 1017.7
20260502195927 14 298 0.0 0.0 0.00 0.00 0.00 59 1017.6
20260502195427 14 298 0.0 0.0 0.00 0.00 0.00 58 1017.6
20260502194927 14 298 0.0 0.0 0.00 0.00 0.00 58 1017.6
20260502194430 15 298 0.0 0.0 0.00 0.00 0.00 57 1017.5
20260502194427 15 298 0.0 0.0 0.00 0.00 0.00 57 1017.5
20260502193927 15 298 0.0 0.0 0.00 0.00 0.00 57 1017.6
20260502193427 15 298 0.0 0.0 0.00 0.00 0.00 57 1017.5
20260502192930 15 298 0.0 1.6 0.00 0.00 0.00 58 1017.5
20260502192927 15 298 0.0 1.6 0.00 0.00 0.00 58 1017.5
20260502192427 15 265 0.0 0.0 0.00 0.00 0.00 59 1017.5
20260502191927 15 265 0.0 0.0 0.00 0.00 0.00 59 1017.5
20260502191430 15 265 0.0 0.0 0.00 0.00 0.00 57 1017.4
20260502191427 15 265 0.0 0.0 0.00 0.00 0.00 57 1017.4
20260502190927 15 265 0.0 0.0 0.00 0.00 0.00 54 1017.4
20260502190427 16 265 0.0 0.0 0.00 0.00 0.00 52 1017.4
20260502185927 16 265 0.0 0.0 0.00 0.00 0.00 49 1017.3
20260502185427 17 265 0.0 0.0 0.00 0.00 0.00 44 1017.3
20260502184927 17 265 0.0 1.6 0.00 0.00 0.00 42 1017.2
20260502184431 18 289 1.6 8.0 0.00 0.00 0.00 40 1017.2
20260502184427 18 289 1.6 8.0 0.00 0.00 0.00 40 1017.2
20260502183927 18 319 3.2 9.7 0.00 0.00 0.00 39 1017.1
20260502183427 18 316 3.2 11.3 0.00 0.00 0.00 38 1016.9
20260502182927 18 319 4.8 8.0 0.00 0.00 0.00 39 1016.9
20260502182427 18 279 4.8 12.9 0.00 0.00 0.00 39 1016.8
20260502181927 18 320 4.8 9.7 0.00 0.00 0.00 40 1016.8
20260502181431 18 310 3.2 11.3 0.00 0.00 0.00 42 1016.8
20260502181427 18 310 3.2 11.3 0.00 0.00 0.00 42 1016.8
20260502180927 18 299 4.8 14.5 0.00 0.00 0.00 44 1016.9
20260502180427 18 285 0.0 8.0 0.00 0.00 0.00 49 1016.8
20260502170427 21 305 0.0 0.0 0.00 0.00 0.00 52 1016.8
20260502163927 22 277 0.0 3.2 0.00 0.00 0.00 45 1017.1
20260502163427 22 192 0.0 6.4 0.00 0.00 0.00 42 1017.2
20260502162930 22 254 0.0 4.8 0.00 0.00 0.00 42 1017.3
20260502162927 22 254 0.0 4.8 0.00 0.00 0.00 42 1017.3
20260502162427 22 274 0.0 6.4 0.00 0.00 0.00 42 1017.3
20260502161927 22 295 0.0 3.2 0.00 0.00 0.00 42 1017.4
20260502161427 22 181 0.0 9.7 0.00 0.00 0.00 41 1017.5
20260502160927 22 282 6.4 9.7 0.00 0.00 0.00 41 1017.6
20260502160427 22 254 1.6 6.4 0.00 0.00 0.00 41 1017.6
20260502151927 22 293 1.6 11.3 0.00 0.00 0.00 42 1018.0
20260502151430 22 319 4.8 9.7 0.00 0.00 0.00 40 1018.0
20260502151427 22 319 4.8 9.7 0.00 0.00 0.00 40 1018.0
20260502150927 22 262 4.8 11.3 0.00 0.00 0.00 40 1018.1
20260502150427 22 333 6.4 11.3 0.00 0.00 0.00 41 1018.1
20260502130427 23 30 0.0 6.4 0.00 0.00 0.00 40 1019.2
20260502123428 22 330 8.0 12.9 0.00 0.00 0.00 39 1019.5
20260502122931 23 336 4.8 6.4 0.00 0.00 0.00 40 1019.5
20260502122928 23 336 4.8 6.4 0.00 0.00 0.00 40 1019.5
20260502122428 23 315 3.2 12.9 0.00 0.00 0.00 40 1019.4
20260502121928 23 298 6.4 8.0 0.00 0.00 0.00 39 1019.4
20260502121431 22 81 0.0 12.9 0.00 0.00 0.00 40 1019.6
20260502121428 22 81 0.0 12.9 0.00 0.00 0.00 40 1019.6
20260502120928 23 327 4.8 11.3 0.00 0.00 0.00 38 1019.6
20260502120428 22 319 4.8 14.5 0.00 0.00 0.00 40 1019.7
20260502115931 23 315 8.0 11.3 0.00 0.00 0.00 40 1019.7
20260502115928 23 315 8.0 11.3 0.00 0.00 0.00 40 1019.7
20260502115428 23 271 4.8 17.7 0.00 0.00 0.00 37 1019.8
20260502114928 23 151 4.8 16.1 0.00 0.00 0.00 40 1019.9
20260502114431 23 5 1.6 16.1 0.00 0.00 0.00 37 1019.9
20260502114428 23 5 1.6 16.1 0.00 0.00 0.00 37 1019.9
20260502113928 23 126 1.6 11.3 0.00 0.00 0.00 39 1020.0
20260502113428 23 187 4.8 9.7 0.00 0.00 0.00 37 1020.1
20260502112931 23 225 0.0 9.7 0.00 0.00 0.00 37 1020.1
20260502112928 23 225 0.0 9.7 0.00 0.00 0.00 37 1020.1
20260502112428 23 174 9.7 11.3 0.00 0.00 0.00 36 1020.2
20260502111928 23 282 4.8 11.3 0.00 0.00 0.00 38 1020.3
20260502111431 23 330 4.8 19.3 0.00 0.00 0.00 39 1020.3
20260502111428 23 330 4.8 19.3 0.00 0.00 0.00 39 1020.3
20260502110928 23 230 17.7 17.7 0.00 0.00 0.00 37 1020.4
20260502110428 22 56 0.0 14.5 0.00 0.00 0.00 35 1020.4
20260502105931 22 247 8.0 11.3 0.00 0.00 0.00 36 1020.5
20260502105928 22 247 8.0 11.3 0.00 0.00 0.00 36 1020.5
20260502105428 22 288 4.8 14.5 0.00 0.00 0.00 37 1020.7
20260502104928 22 192 6.4 8.0 0.00 0.00 0.00 47 1020.7
20260502104432 22 267 4.8 9.7 0.00 0.00 0.00 44 1020.8
20260502104428 22 267 4.8 9.7 0.00 0.00 0.00 44 1020.8
20260502103928 21 226 0.0 11.3 0.00 0.00 0.00 44 1020.9
20260502103428 21 303 0.0 4.8 0.00 0.00 0.00 50 1021.0
20260502102928 21 56 0.0 11.3 0.00 0.00 0.00 47 1021.0
20260502102428 20 309 9.7 11.3 0.00 0.00 0.00 51 1021.0
20260502101928 20 147 1.6 11.3 0.00 0.00 0.00 52 1021.1
20260502101428 20 341 9.7 11.3 0.00 0.00 0.00 53 1021.2
20260502100928 20 347 4.8 4.8 0.00 0.00 0.00 53 1021.2
20260502100428 20 15 0.0 8.0 0.00 0.00 0.00 56 1021.3
20260502091431 18 5 0.0 9.7 0.00 0.00 0.00 59 1021.7
20260502091428 18 5 0.0 9.7 0.00 0.00 0.00 59 1021.7
20260502090928 18 357 4.8 9.7 0.00 0.00 0.00 60 1021.7
20260502090428 18 347 1.6 6.4 0.00 0.00 0.00 61 1021.7